This is the latest recevied weather packets stored in our database for station/object W2GUX. If no packets are shown the sender has not sent any weather packets the latest 10 day(s).
| Time | Temp. | Humidity | Pressure | Rain* | Wind** | Luminosity | Snow |
|---|---|---|---|---|---|---|---|
| 1778005503 | 28.89° C | 26% | 1004.9 hPa | 0 mm | - | - | - |
| 1778005203 | 28.89° C | 27% | 1004.8 hPa | 0 mm | - | - | - |
| 1778004903 | 28.89° C | 26% | 1004.9 hPa | 0 mm | - | - | - |
| 1778004604 | 29.44° C | 26% | 1005 hPa | 0 mm | - | - | - |
| 1778004304 | 29.44° C | 26% | 1005.1 hPa | 0 mm | - | - | - |
| 1778004004 | 29.44° C | 27% | 1005.1 hPa | 0 mm | - | - | - |
| 1778003703 | 28.89° C | 28% | 1005.1 hPa | 0 mm | - | - | - |
| 1778003404 | 28.89° C | 27% | 1005.1 hPa | 0 mm | - | - | - |
| 1778003103 | 28.33° C | 28% | 1005.2 hPa | 0 mm | - | - | - |
| 1778002803 | 28.33° C | 28% | 1005.3 hPa | 0 mm | - | - | - |
| 1778002503 | 28.33° C | 27% | 1005.5 hPa | 0 mm | - | - | - |
| 1778002204 | 28.33° C | 28% | 1005.6 hPa | 0 mm | - | - | - |
| 1778001903 | 28.33° C | 29% | 1005.6 hPa | 0 mm | - | - | - |
| 1778001603 | 28.33° C | 30% | 1005.6 hPa | 0 mm | - | - | - |
| 1778001303 | 28.33° C | 30% | 1005.6 hPa | 0 mm | - | - | - |
| 1778001004 | 27.78° C | 31% | 1005.7 hPa | 0 mm | - | - | - |
| 1778000704 | 27.78° C | 33% | 1005.7 hPa | 0 mm | - | - | - |
| 1778000403 | 27.22° C | 33% | 1006 hPa | 0 mm | - | - | - |
| 1778000103 | 27.22° C | 32% | 1006 hPa | 0 mm | - | - | - |
| 1777999803 | 27.78° C | 32% | 1006.1 hPa | 0 mm | - | - | - |
| 1777999504 | 27.22° C | 33% | 1006.1 hPa | 0 mm | - | - | - |
| 1777999204 | 27.22° C | 32% | 1006.1 hPa | 0 mm | - | - | - |
| 1777998904 | 27.22° C | 32% | 1006.2 hPa | 0 mm | - | - | - |
| 1777998603 | 27.22° C | 32% | 1006.3 hPa | 0 mm | - | - | - |
| 1777998303 | 27.22° C | 33% | 1006.3 hPa | 0 mm | - | - | - |
* Rain latest hour (hover to see other rain measurements)
** Current wind speed in m/s (hover to see current wind gust speed)